Lapse_Rate
0.4 1.6 3.3 5.3 5.4 5.4 5.5 5.2 4.8 4.7 5.3 5.2 5.3 5.5 5.7 5.1 5.0 5.3 6.0 3.9 4.4 4.5 5.7 6.6 5.9 5.8 5.7 5.3 5.5 5.7 6.0 6.7 6.6 6.3 6.7 6.5 6.1 5.8 5.8 5.9 6.1 6.1 6.1
-0.7 -0.5 1.4 3.1 4.9 5.7 5.5 5.5 5.1 4.5 4.3 5.9 5.7 5.5 5.7 5.5 5.3 5.2 6.0 6.2 3.9 4.5 5.2 6.1 6.4 5.8 5.9 5.5 5.2 5.7 6.2 6.7 6.7 6.6 6.6 6.5 6.6 6.1 5.9 6.1 6.3 6.7 7.1
-0.4 0.1 0.4 1.1 2.2 4.5 5.3 5.2 5.4 5.1 4.1 4.7 6.0 6.0 5.9 5.5 5.5 5.6 6.1 6.5 6.1 3.2 4.6 5.3 6.0 6.0 5.8 5.7 5.2 5.3 5.9 6.2 6.4 6.5 6.5 6.6 6.5 6.1 6.0 6.1 6.3 6.4 7.5
-0.1 0.5 1.4 1.6 1.9 2.0 3.2 5.6 5.3 5.2 4.7 3.9 4.9 6.4 6.1 6.4 5.8 5.8 6.3 6.3 7.0 7.0 3.9 4.4 5.3 5.8 5.7 5.6 5.7 5.7 5.7 5.7 5.8 6.0 6.3 6.2 6.1 6.0 5.9 6.0 6.0 6.1 6.5
0.8 1.4 1.6 0.8 0.6 1.8 2.2 3.1 5.6 5.0 5.5 4.1 4.5 6.6 6.2 6.3 6.3 6.5 6.4 6.2 6.3 6.5 7.4 5.4 3.8 4.8 5.7 5.6 5.9 6.0 6.1 5.8 5.7 5.7 5.9 5.7 5.5 5.7 5.7 5.7 5.7 5.8 6.1
2.1 2.0 2.5 2.5 2.1 2.5 3.3 3.7 4.3 5.6 5.8 5.9 4.3 5.5 7.1 6.1 6.8 6.7 6.3 6.4 6.7 6.2 6.7 6.7 6.2 5.6 5.0 5.2 5.6 6.0 6.4 6.3 6.2 6.0 5.8 5.7 5.2 5.1 5.1 5.2 5.3 5.4 5.5
5.7 4.1 4.6 4.2 3.8 4.2 4.3 3.8 4.6 5.8 5.1 5.6 5.4 5.3 6.5 5.9 5.7 6.7 6.5 6.6 6.8 6.6 6.6 6.5 6.5 5.5 5.5 4.0 4.8 5.3 6.3 6.6 6.2 5.9 5.7 5.7 5.3 5.1 4.9 4.9 4.9 5.1 5.3
6.6 6.8 6.8 5.7 5.0 5.1 4.2 5.7 5.2 5.1 6.0 4.8 5.6 6.2 6.5 6.5 5.5 5.8 6.9 6.6 6.8 7.5 6.9 6.4 6.6 6.0 6.6 7.3 6.4 4.6 5.6 6.4 6.4 6.1 5.7 5.3 5.1 4.9 5.0 5.1 5.0 5.0 5.0
7.9 7.9 7.9 7.4 6.6 6.9 6.3 4.7 6.0 6.9 6.7 5.0 5.2 6.0 6.8 7.3 8.1 7.4 5.8 6.8 6.5 6.7 7.3 7.3 6.6 6.5 6.2 6.6 6.7 5.4 4.5 5.5 6.0 6.4 6.1 5.6 5.1 5.1 4.9 4.7 5.0 5.2 5.3
7.7 7.6 7.5 7.1 6.8 6.3 6.2 6.1 6.2 6.3 7.8 7.3 5.0 4.8 4.7 5.8 7.7 7.5 5.9 6.3 6.6 6.5 6.4 7.0 6.9 6.5 6.5 6.3 5.9 6.4 5.2 3.9 4.7 5.5 6.2 6.2 5.8 5.4 5.2 5.1 4.9 5.0 5.4
6.3 6.9 7.1 6.8 6.7 6.3 6.1 6.1 5.5 5.7 7.2 7.3 6.3 2.3 4.8 5.8 3.9 7.3 7.6 5.8 5.8 6.2 6.9 6.7 6.3 7.1 6.5 6.6 6.4 5.9 4.1 3.4 3.2 3.6 4.7 5.9 6.2 6.0 5.4 5.0 4.9 5.1 5.2
4.4 4.7 4.5 4.2 4.8 5.1 5.2 6.2 6.5 6.0 5.5 7.2 7.0 5.4 5.9 5.9 6.4 5.4 6.7 7.6 5.9 5.4 6.1 6.4 5.7 6.7 6.9 6.8 6.4 5.8 3.9 2.3 2.4 2.4 3.0 3.8 4.8 5.3 5.5 5.0 4.8 4.8 5.0
3.3 3.0 3.3 3.4 3.4 3.7 5.0 5.9 7.0 6.8 5.0 6.7 6.9 7.3 7.5 6.8 6.2 6.3 6.6 8.0 7.3 5.2 3.7 4.3 5.5 5.4 6.1 6.3 6.3 4.2 2.7 1.4 1.5 1.6 1.9 2.2 2.9 3.6 4.2 4.7 4.7 4.7 4.9
4.3 4.3 4.2 3.2 2.0 2.2 2.8 5.2 6.6 7.6 7.4 6.3 6.9 7.7 6.5 4.7 5.1 4.9 7.1 7.1 6.7 6.3 5.5 5.6 4.2 3.9 4.6 4.7 5.6 3.7 4.4 1.0 0.1 0.3 0.7 0.8 1.3 1.9 2.8 3.5 3.8 4.5 4.7
4.4 3.6 3.5 2.8 1.5 0.9 1.1 3.2 2.5 3.0 3.1 3.9 6.1 6.5 3.6 2.0 1.6 1.1 2.0 5.8 7.1 6.9 7.3 6.4 5.6 4.1 5.1 5.3 5.2 4.8 5.1 3.8 -0.5 -1.0 -0.5 -0.1 0.3 0.5 0.9 1.7 2.3 3.1 4.0
3.3 2.9 2.9 2.3 0.8 0.3 -0.0 0.5 0.7 -0.3 -0.5 -0.9 -0.6 -0.3 1.3 1.3 -0.0 -0.7 -0.7 0.6 3.7 5.6 6.8 5.7 4.8 4.0 1.1 1.6 -1.0 3.1 5.3 3.8 2.1 -0.3 -0.9 -0.7 -0.5 -0.2 0.4 1.2 1.5 1.9 2.5
4.6 4.7 4.7 2.7 -0.3 1.5 2.3 3.1 1.5 -0.6 -1.4 -1.8 -1.6 -1.8 -2.4 -2.0 -2.1 -1.7 -1.7 -0.6 1.1 2.0 5.0 3.5 2.0 0.9 -1.6 -1.9 -1.1 -1.2 -0.4 -0.1 -0.0 -1.8 -1.8 -1.4 -1.4 -1.3 -0.4 0.4 1.0 1.2 1.3
3.0 3.8 4.6 4.1 3.5 2.8 2.6 4.1 3.6 1.8 -0.6 -0.7 0.3 -0.6 -1.2 -0.7 -1.0 -1.7 -2.6 -2.6 -0.7 -1.1 1.6 3.2 -0.2 -0.5 -1.5 -1.7 -2.0 -1.8 -1.8 -1.4 -0.6 -0.6 -0.9 -1.9 -2.4 -1.7 -1.3 -1.0 -0.9 -0.3 0.2
2.6 1.5 2.1 1.8 2.0 2.6 4.0 3.3 4.5 3.2 2.2 1.8 1.7 0.2 -0.8 -0.8 -1.5 -1.5 -0.8 1.1 0.2 -0.4 -0.5 -0.4 0.2 -0.5 -0.9 -2.6 -1.8 -1.6 -2.4 -2.3 -1.0 0.2 -0.3 -0.3 -1.1 -1.3 -0.9 -0.6 -0.8 -1.4 -1.5
1.2 -0.0 0.6 0.9 1.0 2.3 0.5 1.9 1.6 1.5 2.7 0.6 3.8 5.1 1.6 0.4 -0.8 -1.6 -1.6 -1.1 -0.6 -0.1 0.3 -1.3 -0.4 -0.3 -1.6 -2.0 -1.8 -3.5 -3.3 -2.3 -0.4 1.2 0.4 -0.1 -0.5 -0.3 0.4 0.8 -1.0 -1.9 -1.8
1.3 1.6 1.2 0.8 1.9 1.8 2.3 2.2 1.8 1.1 -0.7 1.6 0.8 2.0 3.1 2.0 1.3 -0.6 -0.8 -0.8 -0.7 -0.1 -0.7 -0.3 -0.2 0.2 -1.6 -2.2 -2.1 -1.5 -0.2 0.2 2.4 -0.2 -0.8 0.9 1.1 2.4 2.1 1.8 0.7 -1.2 -1.7
3.7 3.2 2.9 2.5 1.6 3.4 2.9 2.1 0.6 0.9 0.1 0.5 1.4 3.4 3.3 2.4 1.9 0.9 -0.1 0.1 -1.1 -0.2 0.6 0.6 1.2 2.1 1.7 0.6 0.7 0.5 0.3 -0.3 0.7 2.4 -1.1 -0.6 1.8 1.3 1.4 1.6 -0.4 -1.2 -2.0
2.8 2.8 3.8 4.0 3.9 3.1 2.4 0.6 0.5 1.1 0.8 1.4 1.3 2.9 3.3 3.3 3.4 3.8 2.9 2.5 1.8 1.3 0.8 2.2 1.7 2.0 2.6 2.9 3.0 3.6 3.2 2.7 3.2 3.8 2.3 1.0 2.5 1.1 1.3 1.2 0.3 -0.5 -0.7
3.1 3.4 3.5 3.8 3.7 3.3 2.1 2.6 2.0 1.9 1.3 1.1 1.5 2.0 2.0 2.1 2.4 3.2 3.9 2.6 1.9 1.9 2.8 3.6 3.1 3.1 3.1 2.6 2.6 3.5 4.0 3.6 2.8 3.9 2.8 2.8 2.1 0.5 0.2 1.2 1.0 -0.3 -0.9
4.0 3.8 3.8 4.0 4.7 4.4 3.1 2.3 2.7 2.5 2.0 1.3 1.9 2.5 2.6 2.4 1.9 2.3 2.7 2.6 1.8 0.8 1.9 2.5 2.8 2.7 2.6 2.5 2.0 3.0 2.3 3.9 2.9 3.4 4.7 5.0 4.1 2.7 0.6 0.8 1.3 0.9 0.5
3.1 3.9 3.1 2.8 3.3 3.8 3.2 2.1 2.1 2.5 1.0 1.5 1.5 2.1 2.5 2.9 1.7 1.0 1.3 1.5 0.9 0.1 0.0 0.5 1.1 1.1 0.9 1.2 1.3 2.4 3.0 4.4 5.9 5.1 6.8 4.9 5.9 6.4 7.5 5.7 3.6 1.3 1.1
Wind_Speed
8 11 11 10 11 12 11 8 10 10 12 15 15 14 13 15 14 12 11 16 19 19 19 16 17 17 17 16 17 17 19 20 20 22 23 23 21 19 17 16 15 17 20
13 9 8 8 8 14 14 12 8 9 11 12 13 14 13 15 16 15 14 12 20 21 21 19 18 19 20 18 17 18 19 20 20 22 23 22 21 19 18 17 16 16 18
15 14 10 8 9 11 16 14 10 9 8 10 15 13 12 15 14 16 16 14 14 21 25 23 21 23 22 21 20 21 20 20 21 22 21 21 20 19 19 18 16 16 16
17 16 10 10 11 11 8 11 11 10 10 9 12 12 11 12 14 15 16 16 15 15 23 25 24 23 24 24 23 22 21 22 23 22 21 21 22 22 21 20 18 18 17
18 14 10 11 17 10 8 8 11 13 13 11 11 13 13 12 13 12 14 16 16 16 17 22 26 25 26 25 26 23 22 23 23 23 23 22 23 24 23 23 21 21 20
19 16 12 12 14 11 10 10 11 14 13 12 10 13 13 12 12 12 13 14 17 18 18 17 20 22 26 25 23 23 24 25 25 24 24 24 25 25 25 25 24 23 22
18 14 11 12 12 12 14 13 14 10 12 13 8 8 11 14 14 12 11 11 14 16 18 18 17 16 18 26 27 24 25 26 27 26 25 26 27 27 27 27 26 25 24
19 15 15 13 15 11 14 15 15 12 9 8 10 8 7 9 11 12 12 11 15 11 12 17 18 19 20 19 24 26 26 27 27 28 27 27 27 28 28 28 28 28 27
22 18 15 14 15 13 12 13 15 16 11 9 11 5 6 8 11 8 15 13 14 12 12 12 17 18 20 18 19 25 29 29 27 26 28 28 29 29 30 30 30 30 30
17 17 14 14 13 11 15 15 14 14 13 13 8 14 5 2 7 6 4 13 12 14 15 11 12 16 19 19 21 21 25 34 32 28 26 28 27 29 30 31 31 31 32
16 15 13 14 13 10 13 16 17 16 13 11 9 4 2 4 4 5 6 7 9 11 12 13 11 12 18 20 19 21 28 29 33 31 28 28 29 29 30 32 32 32 33
11 14 15 13 13 13 14 14 17 19 15 15 13 10 9 8 10 5 5 6 10 9 11 11 11 11 15 18 21 21 27 31 31 29 29 28 29 29 30 32 33 34 34
10 13 15 13 11 12 15 15 17 17 15 13 14 11 11 11 9 8 9 10 6 4 5 8 11 9 12 17 20 24 25 29 31 30 28 27 28 29 28 30 33 35 35
10 15 13 12 13 14 14 12 11 12 14 12 17 14 7 1 1 3 10 11 7 6 4 4 8 8 9 14 19 20 21 25 27 28 27 26 28 27 29 29 29 32 36
11 15 16 15 15 17 17 14 5 4 4 4 8 10 7 6 5 5 5 7 12 11 9 6 4 7 6 8 9 11 14 14 20 23 25 26 25 22 22 23 24 27 30
16 16 17 17 19 20 20 16 7 10 10 8 7 11 7 4 6 7 7 5 3 8 9 1 3 7 10 9 18 9 6 6 10 17 19 21 21 21 22 24 25 26 27
15 17 18 20 22 21 20 16 15 14 16 14 11 14 15 13 9 7 6 6 3 2 4 2 5 8 9 10 10 13 16 15 14 20 15 12 11 17 19 25 28 27 27
17 16 17 22 24 21 21 18 18 17 19 18 15 17 15 10 14 13 10 11 8 7 3 6 7 8 9 9 9 10 9 15 14 14 15 16 17 14 17 23 26 28 29
18 20 21 23 23 21 20 20 19 19 20 20 18 16 14 14 15 11 12 8 7 9 10 7 6 6 6 10 8 8 9 10 18 13 14 16 19 19 18 16 20 25 24
19 22 21 20 22 19 20 19 17 19 20 22 19 16 20 19 17 15 12 12 11 9 10 9 7 5 5 8 7 10 9 9 9 9 15 14 14 13 12 20 16 18 18
17 17 18 19 18 18 14 14 17 18 20 16 20 21 19 27 33 29 13 14 14 10 9 9 9 8 8 7 11 7 8 10 8 9 11 9 10 9 13 14 19 26 24
19 18 18 19 17 13 26 25 20 18 20 20 20 18 19 25 24 29 30 30 24 15 14 11 9 8 12 9 9 8 8 9 6 10 13 11 8 9 10 16 22 20 21
18 19 19 17 18 16 29 31 28 19 19 20 19 16 17 15 18 17 22 22 25 25 17 13 12 11 10 11 10 9 9 8 7 10 11 5 7 11 12 20 18 14 19
16 17 18 19 18 18 28 24 25 18 17 20 20 20 21 22 22 17 15 16 17 17 16 11 13 11 10 11 10 7 9 9 8 5 9 4 9 10 11 15 5 20 26
14 15 15 18 18 19 30 25 19 16 17 19 19 21 19 19 26 23 15 15 15 15 18 19 18 17 15 17 17 7 9 9 8 5 7 8 8 11 9 6 9 24 28
12 11 15 15 22 18 30 30 20 12 15 13 15 17 28 21 26 26 17 15 14 13 13 12 11 15 16 16 18 13 8 8 9 6 8 9 9 10 7 5 11 15 19
Wind_Direction
312 313 307 261 238 238 238 226 223 226 229 224 221 223 219 216 217 220 227 212 209 212 213 211 199 203 204 196 200 206 201 200 194 187 185 182 181 175 175 177 183 192 191
305 296 296 291 270 234 230 233 222 221 228 229 223 221 225 220 218 216 217 220 214 217 219 211 208 203 209 205 202 211 207 205 198 194 191 189 191 185 185 189 195 204 201
301 298 289 283 275 266 233 223 228 224 221 227 231 221 223 224 220 221 217 220 212 217 220 216 211 205 207 206 202 206 208 205 201 198 196 198 197 193 195 199 205 211 202
302 298 289 283 278 279 290 235 216 221 217 215 227 224 219 224 221 220 221 216 222 219 215 219 219 214 208 206 206 205 206 202 199 200 201 202 200 199 202 204 206 205 204
303 294 291 289 286 280 271 271 229 215 213 206 214 227 219 217 219 217 218 216 220 224 207 210 220 220 216 213 206 204 208 205 201 201 202 200 199 202 203 206 206 207 208
296 292 288 286 282 273 262 257 258 233 215 215 196 221 226 218 220 218 214 216 218 219 218 213 213 223 222 219 215 208 209 208 207 207 205 203 202 204 204 204 205 207 207
297 291 284 286 281 271 268 266 261 254 227 213 195 201 226 226 213 219 219 217 218 213 222 216 212 210 215 222 216 213 210 212 211 209 209 206 205 205 206 206 206 206 207
294 290 282 285 282 276 282 263 257 261 252 262 205 187 201 211 221 215 219 221 220 216 217 222 215 210 216 216 221 217 215 216 215 213 210 208 206 206 208 209 209 208 207
297 284 285 280 280 274 267 266 266 266 260 236 212 234 193 224 207 194 216 220 215 216 220 218 218 214 214 218 216 218 217 219 219 220 213 211 208 209 210 210 211 212 211
300 297 284 278 269 262 266 262 260 249 252 230 202 218 212 315 202 189 203 217 214 214 214 215 216 216 216 220 219 220 216 222 224 225 221 217 213 210 210 213 212 212 213
304 306 308 303 288 270 253 256 256 247 248 227 221 177 343 269 320 237 205 195 216 220 216 219 215 217 217 224 224 222 221 220 223 224 225 225 221 214 209 210 214 215 216
322 327 320 308 298 290 282 252 248 248 252 233 229 228 195 190 231 205 223 206 214 212 218 219 214 219 218 221 229 224 214 218 221 222 223 225 226 221 217 212 212 214 216
334 329 321 321 315 300 282 256 244 241 244 232 213 212 208 215 212 198 225 219 201 187 197 218 219 215 223 227 231 221 221 219 221 224 223 225 227 229 224 216 215 213 215
338 335 336 340 342 338 323 289 241 241 236 242 213 212 194 133 143 284 229 229 217 202 176 145 202 213 214 221 230 214 229 225 229 226 229 228 228 227 229 222 219 217 215
359 3 358 357 7 7 359 340 37 48 22 321 227 191 143 133 116 96 49 258 225 226 216 201 171 191 210 228 248 239 233 229 225 229 234 239 240 236 241 238 231 225 224
14 16 16 12 20 21 12 9 11 40 63 48 53 66 66 78 90 95 79 24 303 256 216 124 72 78 48 42 21 344 290 257 243 237 233 240 243 238 240 245 240 234 232
8 22 24 29 31 26 18 13 28 44 55 55 50 72 61 50 43 35 74 89 21 339 204 85 69 43 47 31 16 19 16 22 38 38 19 11 303 273 259 251 250 244 237
21 22 26 40 36 28 26 24 31 38 48 47 45 62 61 60 57 42 36 47 39 18 16 103 42 38 60 13 25 23 15 6 346 1 10 41 23 358 277 256 250 246 244
25 30 29 37 34 31 25 31 32 38 45 45 38 39 46 55 56 49 44 34 49 42 45 62 63 32 43 21 12 5 17 8 337 333 16 10 13 12 355 334 276 260 257
29 28 27 33 36 24 29 29 34 41 43 49 37 38 48 48 52 55 47 33 34 50 53 58 51 33 34 16 19 12 0 8 322 10 7 7 355 356 8 358 14 355 319
33 38 33 35 40 38 31 33 43 44 51 50 44 37 40 51 51 54 45 33 39 37 52 53 45 35 30 19 14 360 353 329 286 17 358 359 349 358 2 0 360 352 343
42 40 41 41 40 43 41 44 47 49 48 43 46 43 41 39 46 50 53 51 51 40 48 56 48 40 28 16 1 1 353 348 339 9 350 338 348 354 344 348 344 345 1
39 42 42 42 45 39 37 42 45 50 44 47 45 43 46 40 36 50 53 51 52 51 48 53 55 42 31 13 358 1 355 341 319 323 336 324 3 334 339 324 337 6 1
43 43 42 38 41 37 36 43 49 55 54 46 44 41 42 34 30 32 43 48 46 43 36 45 50 39 30 19 9 353 347 329 321 353 12 316 337 326 320 315 9 2 356
53 51 48 47 46 44 42 41 46 47 53 50 46 42 42 41 34 31 40 39 42 34 31 34 43 36 30 26 18 13 11 1 353 338 40 344 337 324 318 312 352 349 346
54 54 51 46 47 45 43 43 43 47 50 48 47 42 39 44 42 36 39 32 31 13 8 13 20 23 20 18 20 20 9 7 356 333 23 345 338 346 329 318 344 334 327